Regional Weather Roundup
Issued by NWS Northern Indiana

Home | Current Version | Previous Version | Text Only | Print | Product List | Glossary On
Versions: 1 2 3 4 5 6 7 8 9 10 11 12 13 14 15 16 17 18 19 20 21 22 23 24 25 26 27 28 29 30 31 32 33 34 35 36 37 38 39 40 41 42 43 44 45 46 47 48 49 50
000
ASUS43 KIWX 310710
RWRIWX

KIWX WEATHER ROUNDUP
NATIONAL WEATHER SERVICE NORTHERN INDIANA
300 AM EDT SAT JUL 31 2021

NOTE: "FAIR" INDICATES FEW OR NO CLOUDS BELOW 12,000 FEET WITH NO
SIGNIFICANT WEATHER AND/OR OBSTRUCTIONS TO VISIBILITY.

* THESE STATIONS ARE NOT UNDER NWS QUALITY CONTROL. THEY ALSO MAY NOT
  REPORT WEATHER SUCH AS PRECIPITATION OR FOG.

INZ001>027-310800-
NORTHERN INDIANA

CITY           SKY/WX    TMP DP  RH WIND       PRES   REMARKS
GARY*          MOCLDY    66  58  75 N3        30.11S
VALPARAISO     CLOUDY    62  59  90 CALM      30.10F
MICHIGAN CITY* MOCLDY    57  54  88 CALM      30.10S
LAPORTE*       MOCLDY    60  57  92 CALM      30.10S
SOUTH BEND     PTCLDY    60  56  86 CALM      30.09S
GOSHEN         MOCLDY    60  57  89 W3        30.08F
MONTICELLO*    CLOUDY    62  58  87 CALM      30.09F
LOGANSPORT*    CLOUDY    61  57  88 CALM      30.10F
ROCHESTER*     CLOUDY    63  59  88 CALM      30.09F
PLYMOUTH*      CLEAR     61  57  88 CALM      30.08F
WARSAW*        MOCLDY    61  55  82 CALM      30.08F
AUBURN*        MOCLDY    63  59  88 CALM      30.08S
FORT WAYNE     CLOUDY    64  59  83 NW3       30.08S
HUNTINGTON*    CLOUDY    62  58  86 N3        30.08S
PERU/GRISSOM   CLOUDY    63  57  80 CALM      30.08F

$$
INZ028>050-310800-
CENTRAL INDIANA

CITY           SKY/WX    TMP DP  RH WIND       PRES   REMARKS
LAFAYETTE      CLOUDY    64  57  78 NE3       30.08F
KOKOMO*        LGT RAIN  63  63 100 W3        30.09F
MARION*        CLOUDY    62  60  93 CALM      30.09F
MUNCIE*        CLOUDY    66  60  81 NW3       30.08S
PORTLAND*      CLOUDY    64  59  82 CALM      30.07F
INDIANAPOLIS   MOCLDY    66  57  72 N7        30.07F

$$
MIZ043>046-050>051-056>058-064>065-071>073-077>080-310800-
SOUTHWEST LOWER MICHIGAN

CITY           SKY/WX    TMP DP  RH WIND       PRES   REMARKS
BATTLE CREEK   CLEAR     60  55  83 NW3       30.08S
BENTON HARBOR  CLEAR     55  53  93 CALM      30.08S
HOLLAND        CLEAR     57  50  77 N3        30.09F
GRAND RAPIDS   CLEAR     59  53  80 CALM      30.08F
KALAMAZOO      CLEAR     60  54  80 N3        30.08S

$$
OHZ001>008-015>018-024>025-310800-
NORTHWEST OHIO

CITY           SKY/WX    TMP DP  RH WIND       PRES   REMARKS
WAUSEON*       FAIR      61  61 100 NW3       30.06S
DEFIANCE       CLOUDY    64  59  83 NW3       30.07S
FINDLAY        CLOUDY    66  59  78 E6        30.05F
TOLEDO EXPRESS MOCLDY    66  58  75 SE5       30.05F
VAN WERT*      FAIR      63  61  94 CALM      30.07F
LIMA           CLOUDY    65  61  87 CALM      30.05F

$$
AND FOR LAKE MICHIGAN COASTAL AND OPEN LAKE BUOY OBSERVATIONS

STATION/POSITION TEMP    WIND        PRES    VSBY  WAVE
                 AIR SEA DIR/SP/G                  HT/PER
                 (F)     (DEG/KT/KT) (MB)    (MI)  (FT/S)
CALUMET HARBOR           320/  2/  3 1018.9
MICHIGAN CITY     69     360/  9/ 11 1018.7R
BURNS HARBOR      69      20/  5/  7 1019.3F
SAINT JOSEPH      61     100/  2/  4 1019.6
SOUTH LAKE BUOY   68 71   30/  8/  8 1018.7F         2/ 5
4 MI NW BRIDGMAN  66 74   90/  6/  8 1018.7          3/ 6
MICHIGAN CITY     69     360/  8/ 10   N/A           3/ 6

$$
&&



USA.gov is the U.S. government's official web portal to all federal, state and local government web resources and services.